period_start,C,m1,H,J0,J1,J2,J3,J4,J5,JA,JB,JC,JD,JJ,JK,JN,#
2016-07-25 00:04:32,-0.01,0.20,0.00,25.72,29.35,32.01,14.31,47.48,1015.64,2029.61,3375.00,3015.36,3422.40,599.81,589.80,14.42,0000 0000 0000 0000 000000
2016-07-25 00:09:34,-0.01,0.20,0.00,25.72,29.35,32.05,14.40,47.42,1015.64,2029.60,3375.00,3015.20,3422.25,599.89,589.80,14.47,0000 0000 0000 0000 000000
2016-07-25 00:14:35,0.00,0.20,0.00,25.71,29.35,32.03,14.35,47.55,1015.64,2029.41,3374.97,3015.08,3422.08,600.22,590.23,14.52,0000 0000 0000 0000 000000
2016-07-25 00:19:36,-0.01,0.20,0.00,25.71,29.35,31.99,14.28,47.42,1015.63,2029.21,3374.58,3015.00,3422.00,600.09,590.01,14.57,0000 0000 0000 0000 000000
2016-07-25 00:24:37,-0.00,0.20,0.00,25.70,29.35,32.00,14.25,47.51,1015.61,2029.19,3374.18,3015.00,3422.00,599.98,590.02,14.62,0000 0000 0000 0000 000000
2016-07-25 00:29:38,0.00,0.20,0.00,25.70,29.35,31.98,14.26,47.45,1015.52,2029.17,3374.04,3015.00,3422.00,599.97,590.03,14.67,0000 0000 0000 0000 000000
2016-07-25 00:34:40,0.01,0.20,0.00,25.70,29.35,31.99,14.41,47.60,1015.37,2029.21,3374.01,3015.00,3422.00,600.35,590.34,14.73,0000 0000 0000 0000 000000
2016-07-25 00:39:41,0.01,0.20,0.00,25.70,29.35,32.04,14.32,47.40,1015.21,2029.34,3374.01,3015.00,3422.00,600.21,589.95,14.78,0000 0000 0000 0000 000000
2016-07-25 00:44:42,0.02,0.20,0.00,25.67,29.35,32.05,14.34,47.37,1015.17,2029.47,3374.00,3015.00,3421.99,600.26,590.15,14.83,0000 0000 0000 0000 000000
2016-07-25 00:49:44,0.01,0.20,0.00,25.63,29.35,31.97,14.34,47.23,1015.15,2029.57,3374.00,3015.00,3421.98,599.82,589.72,14.88,0000 0000 0000 0000 000000
2016-07-25 00:54:45,0.02,0.20,0.00,25.58,29.34,31.96,14.33,47.25,1015.16,2029.71,3374.00,3014.99,3421.98,600.21,590.27,14.93,0000 0000 0000 0000 000000
2016-07-25 00:59:47,0.01,0.20,0.00,25.53,29.32,31.95,14.37,47.32,1015.15,2029.91,3374.00,3014.99,3421.99,600.14,590.36,14.98,0000 0000 0000 0000 000000
2016-07-25 01:04:48,0.00,0.20,0.00,25.48,29.32,31.93,14.34,47.41,1015.15,2029.93,3374.00,3014.99,3421.99,599.85,590.10,15.03,0000 0000 0000 0000 000000
2016-07-25 01:09:49,0.00,0.20,0.00,25.43,29.32,31.92,14.41,47.33,1015.15,2029.96,3374.00,3015.00,3421.99,600.30,590.53,15.08,0000 0000 0000 0000 000000
2016-07-25 01:14:51,0.00,0.20,0.00,25.39,29.30,31.90,14.27,47.29,1015.15,2029.98,3374.00,3015.00,3421.99,599.71,590.25,15.13,0000 0000 0000 0000 000000
2016-07-25 01:19:52,0.00,0.20,0.00,25.33,29.30,31.91,14.36,47.53,1015.15,2029.99,3373.99,3015.00,3421.99,600.38,590.99,15.18,0000 0000 0000 0000 000000
2016-07-25 01:24:53,0.00,0.20,0.00,25.32,29.29,31.90,14.39,47.78,1015.15,2029.99,3373.99,3015.00,3421.99,600.27,590.78,15.23,0000 0000 0000 0000 000000
2016-07-25 01:29:54,0.00,0.20,0.00,25.34,29.27,31.89,14.43,47.78,1015.15,2029.99,3373.99,3015.01,3421.99,600.36,590.79,15.28,0000 0000 0000 0000 000000
2016-07-25 01:34:55,0.00,0.20,0.00,25.37,29.27,31.87,14.33,47.59,1015.15,2029.99,3373.99,3015.01,3421.99,599.86,590.22,15.33,0000 0000 0000 0000 000000
2016-07-25 01:39:57,0.00,0.20,0.00,25.41,29.26,31.93,14.33,47.30,1015.15,2029.99,3373.98,3015.02,3421.99,599.76,590.18,15.38,0000 0000 0000 0000 000000
2016-07-25 01:44:58,0.00,0.20,0.00,25.43,29.25,31.84,14.44,47.38,1015.16,2029.99,3373.98,3015.02,3422.00,600.12,590.31,15.43,0000 0000 0000 0000 000000
2016-07-25 01:49:59,0.00,0.20,0.00,25.46,29.25,31.83,14.27,47.27,1015.16,2029.99,3373.99,3015.02,3422.01,599.72,590.01,15.48,0000 0000 0000 0000 000000
2016-07-25 01:55:00,0.00,0.20,0.00,25.48,29.25,31.84,14.35,47.31,1015.15,2029.99,3373.98,3015.01,3422.00,599.89,590.14,15.53,0000 0000 0000 0000 000000
2016-07-25 02:00:02,0.00,0.20,0.00,25.50,29.25,31.84,14.34,47.34,1015.15,2029.99,3373.97,3015.01,3422.00,599.93,590.11,15.58,0000 0000 0000 0000 000000
2016-07-25 02:05:03,0.00,0.20,0.00,25.54,29.25,31.81,14.35,47.52,1015.14,2029.99,3373.96,3015.01,3422.00,600.13,590.13,15.63,0000 0000 0000 0000 000000
2016-07-25 02:10:04,0.00,0.20,0.00,25.58,29.25,31.82,14.32,47.65,1015.15,2029.99,3373.97,3015.02,3422.00,600.03,590.02,15.68,0000 0000 0000 0000 000000
2016-07-25 02:15:06,0.00,0.20,0.00,25.60,29.25,31.83,14.36,47.73,1015.15,2029.99,3373.95,3015.02,3422.00,600.12,590.21,15.73,0000 0000 0000 0000 000000
2016-07-25 02:20:07,0.00,0.20,0.00,25.61,29.25,31.83,14.36,47.66,1015.15,2030.00,3373.91,3015.01,3422.00,600.00,589.95,15.78,0000 0000 0000 0000 000000
2016-07-25 02:25:08,0.00,0.20,0.00,25.64,29.25,31.86,14.35,47.49,1015.15,2030.00,3373.72,3015.01,3421.99,600.28,590.22,15.83,0000 0000 0000 0000 000000
2016-07-25 02:30:09,0.00,0.20,0.00,25.66,29.25,31.89,14.41,47.58,1015.15,2030.00,3373.20,3015.00,3421.96,600.10,589.91,15.88,0000 0000 0000 0000 000000
2016-07-25 02:35:10,0.00,0.20,0.00,25.68,29.26,31.89,14.24,47.45,1015.15,2030.00,3373.14,3015.00,3421.92,600.12,589.98,15.93,0000 0000 0000 0000 000000
2016-07-25 02:40:11,-0.00,0.20,0.00,25.69,29.27,31.89,14.28,47.45,1015.15,2030.00,3373.14,3014.99,3421.93,599.90,589.66,15.98,0000 0000 0000 0000 000000
2016-07-25 02:45:13,0.01,0.20,0.00,25.72,29.27,31.89,14.30,47.51,1015.11,2030.00,3373.05,3014.98,3421.57,599.95,589.62,16.03,0000 0000 0000 0000 000000
2016-07-25 02:50:14,0.00,0.20,0.00,25.75,29.28,31.89,14.38,47.57,1015.09,2030.00,3373.01,3014.97,3421.32,599.98,589.57,16.08,0000 0000 0000 0000 000000
2016-07-25 02:55:15,0.00,0.20,0.00,25.75,29.30,31.94,14.29,47.63,1015.04,2030.00,3373.00,3014.96,3421.20,600.08,589.75,16.13,0000 0000 0000 0000 000000
2016-07-25 03:00:16,0.00,0.20,0.00,25.76,29.30,31.93,14.28,47.53,1014.91,2030.00,3373.00,3014.83,3421.01,599.80,589.28,16.18,0000 0000 0000 0000 000000
2016-07-25 03:05:17,0.01,0.20,0.00,25.77,29.31,31.97,14.28,47.55,1014.99,2029.98,3372.98,3014.47,3421.00,599.76,589.30,16.23,0000 0000 0000 0000 000000
2016-07-25 03:10:18,0.00,0.20,0.00,25.79,29.32,31.97,14.32,47.53,1014.96,2029.98,3372.96,3014.41,3421.00,600.02,589.54,16.28,0000 0000 0000 0000 000000
2016-07-25 03:15:19,0.00,0.20,0.00,25.78,29.32,31.94,14.31,47.36,1015.04,2029.97,3372.84,3014.17,3421.00,600.18,589.74,16.33,0000 0000 0000 0000 000000
2016-07-25 03:20:20,0.01,0.20,0.00,25.79,29.33,31.97,14.32,47.42,1015.06,2029.97,3372.62,3014.09,3420.99,600.16,589.80,16.38,0000 0000 0000 0000 000000
2016-07-25 03:25:22,0.01,0.21,0.00,25.82,29.35,32.01,14.33,47.62,1015.01,2029.96,3372.32,3014.02,3420.98,600.17,589.55,16.43,0000 0000 0000 0000 000000
2016-07-25 03:30:23,-0.00,0.21,0.00,25.82,29.35,31.99,14.27,47.31,1015.09,2029.92,3372.07,3014.00,3420.90,599.87,589.51,16.48,0000 0000 0000 0000 000000
2016-07-25 03:35:24,-0.00,0.21,0.00,25.82,29.35,31.98,14.31,47.42,1015.00,2029.85,3372.00,3014.00,3420.59,599.59,589.08,16.53,0000 0000 0000 0000 000000
2016-07-25 03:40:26,0.01,0.21,0.00,25.85,29.36,32.05,14.29,47.37,1014.83,2029.83,3372.00,3014.00,3420.29,600.16,589.54,16.58,0000 0000 0000 0000 000000
2016-07-25 03:45:27,-0.00,0.21,0.00,25.85,29.37,32.07,14.33,47.41,1014.85,2029.78,3371.99,3013.99,3420.10,600.10,589.50,16.63,0000 0000 0000 0000 000000
2016-07-25 03:50:28,-0.04,0.20,0.00,25.85,29.37,32.08,14.32,47.44,1014.87,2029.49,3371.92,3013.96,3420.02,599.95,589.30,16.68,0000 0000 0000 0000 000000
2016-07-25 03:55:29,0.00,0.20,0.00,25.86,29.39,32.11,14.34,47.48,1014.73,2029.43,3371.88,3013.94,3420.00,599.98,589.22,16.73,0000 0000 0000 0000 000000
2016-07-25 04:00:30,0.00,0.20,0.00,25.86,29.40,32.12,14.27,47.38,1014.71,2029.39,3371.42,3013.89,3420.00,599.99,589.24,16.78,0000 0000 0000 0000 000000
2016-07-25 04:05:32,0.02,0.21,0.00,25.88,29.40,32.13,14.42,47.52,1014.69,2029.35,3371.05,3013.47,3419.99,600.17,589.41,16.83,0000 0000 0000 0000 000000
2016-07-25 04:10:33,-0.02,0.20,0.00,25.89,29.42,32.13,14.32,47.55,1014.69,2029.19,3371.01,3013.17,3419.98,600.01,589.11,16.88,0000 0000 0000 0000 000000
2016-07-25 04:15:34,-0.00,0.20,0.00,25.90,29.42,32.18,14.36,47.41,1014.68,2029.08,3371.00,3013.04,3419.93,600.43,589.51,16.93,0000 0000 0000 0000 000000
2016-07-25 04:20:35,0.01,0.20,0.00,25.90,29.43,32.18,14.32,47.48,1014.67,2029.04,3370.99,3013.01,3419.40,600.19,589.32,16.98,0000 0000 0000 0000 000000
2016-07-25 04:25:37,0.00,0.20,0.00,25.90,29.45,32.13,14.28,47.49,1014.67,2029.01,3370.97,3013.00,3419.05,599.99,589.06,17.03,0000 0000 0000 0000 000000
2016-07-25 04:30:38,0.00,0.20,0.00,25.91,29.46,32.14,14.28,47.47,1014.67,2029.01,3370.82,3013.00,3419.01,599.95,589.07,17.08,0000 0000 0000 0000 000000
2016-07-25 04:35:39,0.00,0.21,0.00,25.93,29.47,32.19,14.34,47.43,1014.66,2029.00,3370.36,3012.97,3419.00,600.25,589.37,17.13,0000 0000 0000 0000 000000
2016-07-25 04:40:41,0.00,0.21,0.00,25.93,29.48,32.17,14.34,47.49,1014.66,2029.00,3370.10,3012.96,3418.99,600.31,589.41,17.18,0000 0000 0000 0000 000000
2016-07-25 04:45:42,0.00,0.21,0.00,25.94,29.50,32.16,14.29,47.41,1014.66,2029.00,3370.03,3012.95,3418.99,599.62,588.75,17.23,0000 0000 0000 0000 000000
2016-07-25 04:50:43,0.00,0.21,0.00,25.95,29.51,32.17,14.25,47.38,1014.66,2029.00,3370.02,3012.90,3418.98,599.77,588.86,17.28,0000 0000 0000 0000 000000
2016-07-25 04:55:44,0.01,0.21,0.00,25.96,29.52,32.23,14.31,47.52,1014.66,2029.00,3370.00,3012.56,3418.84,599.96,588.99,17.33,0000 0000 0000 0000 000000
2016-07-25 05:00:46,0.02,0.21,0.00,25.97,29.53,32.23,14.25,47.48,1014.67,2028.99,3369.92,3012.06,3418.09,600.10,589.16,17.39,0000 0000 0000 0000 000000
2016-07-25 05:05:47,0.00,0.21,0.00,25.97,29.55,32.25,14.32,47.52,1014.67,2028.96,3369.76,3012.01,3418.01,600.08,589.05,17.44,0000 0000 0000 0000 000000
2016-07-25 05:10:48,0.01,0.21,0.00,25.98,29.55,32.25,14.25,47.46,1014.66,2028.98,3369.17,3012.00,3418.00,599.89,588.90,17.49,0000 0000 0000 0000 000000
2016-07-25 05:15:49,0.00,0.21,0.00,25.99,29.56,32.22,14.34,47.67,1014.67,2028.97,3369.01,3012.00,3418.00,600.07,589.06,17.54,0000 0000 0000 0000 000000
2016-07-25 05:20:51,0.00,0.21,0.00,26.00,29.57,32.27,14.24,47.47,1014.67,2028.95,3369.00,3011.99,3417.98,599.78,588.70,17.59,0000 0000 0000 0000 000000
2016-07-25 05:25:52,-0.01,0.21,0.00,26.00,29.57,32.26,14.26,47.60,1014.67,2028.74,3368.99,3011.97,3417.93,599.74,588.58,17.64,0000 0000 0000 0000 000000
2016-07-25 05:30:53,0.01,0.21,0.00,25.96,29.59,32.28,14.27,47.44,1014.67,2028.75,3368.96,3011.95,3417.77,599.83,588.91,17.69,0000 0000 0000 0000 000000
2016-07-25 05:35:54,0.00,0.21,0.00,25.95,29.60,32.24,14.19,47.35,1014.67,2028.75,3368.73,3011.90,3417.51,599.56,588.68,17.74,0000 0000 0000 0000 000000
2016-07-25 05:40:55,0.02,0.21,0.00,25.95,29.60,32.20,14.30,47.44,1014.67,2028.70,3368.32,3011.82,3417.22,599.92,588.91,17.79,0000 0000 0000 0000 000000
2016-07-25 05:45:57,-0.00,0.21,0.00,25.93,29.60,32.20,14.26,47.36,1014.66,2028.66,3368.10,3011.55,3417.06,599.76,588.83,17.84,0000 0000 0000 0000 000000
2016-07-25 05:50:58,0.00,0.21,0.00,25.90,29.60,32.22,14.32,47.41,1014.67,2028.53,3368.01,3011.12,3417.00,600.25,589.44,17.89,0000 0000 0000 0000 000000
2016-07-25 05:55:59,0.02,0.21,0.00,25.86,29.60,32.23,14.36,47.60,1014.66,2028.78,3368.00,3011.07,3416.99,599.93,589.14,17.94,0000 0000 0000 0000 000000
2016-07-25 06:01:00,0.01,0.21,0.00,25.83,29.60,32.24,14.31,47.38,1014.66,2028.72,3367.99,3011.02,3416.98,599.89,589.14,17.99,0000 0000 0000 0000 000000
2016-07-25 06:06:02,0.01,0.21,0.00,25.80,29.58,32.27,14.22,47.46,1014.66,2028.90,3367.95,3011.02,3416.99,600.16,589.38,18.04,0000 0000 0000 0000 000000
2016-07-25 06:11:03,0.00,0.21,0.00,25.81,29.57,32.30,14.23,47.39,1014.66,2028.91,3367.97,3011.03,3416.99,599.75,589.10,18.09,0000 0000 0000 0000 000000
2016-07-25 06:16:04,0.00,0.21,0.00,25.84,29.57,32.32,14.36,47.58,1014.67,2028.96,3367.96,3011.04,3416.99,600.07,589.28,18.14,0000 0000 0000 0000 000000
2016-07-25 06:21:05,0.00,0.21,0.00,25.89,29.57,32.31,14.31,47.48,1014.68,2028.97,3367.97,3011.05,3416.98,600.04,589.36,18.19,0000 0000 0000 0000 000000
2016-07-25 06:26:06,0.00,0.21,0.00,25.92,29.57,32.32,14.31,47.48,1014.67,2028.97,3367.97,3011.05,3416.98,599.92,589.07,18.24,0000 0000 0000 0000 000000
2016-07-25 06:31:08,0.00,0.21,0.00,25.96,29.57,32.30,14.32,47.46,1014.66,2028.96,3367.96,3011.03,3416.96,599.94,589.02,18.29,0000 0000 0000 0000 000000
2016-07-25 06:36:09,0.01,0.21,0.00,25.98,29.57,32.28,14.33,47.51,1014.66,2028.93,3367.41,3011.00,3416.71,600.32,589.35,18.34,0000 0000 0000 0000 000000
2016-07-25 06:41:10,0.00,0.21,0.00,26.01,29.59,32.29,14.30,47.42,1014.66,2028.94,3367.08,3011.00,3416.44,600.10,589.06,18.39,0000 0000 0000 0000 000000
2016-07-25 06:46:11,-0.00,0.21,0.00,26.04,29.60,32.26,14.27,47.45,1014.66,2028.89,3367.08,3011.00,3416.24,599.75,588.63,18.44,0000 0000 0000 0000 000000
2016-07-25 06:51:13,0.00,0.21,0.00,26.06,29.60,32.26,14.16,47.28,1014.66,2028.81,3367.01,3010.98,3416.03,599.13,587.90,18.49,0000 0000 0000 0000 000000
2016-07-25 06:56:14,0.00,0.21,0.00,26.08,29.62,32.28,14.34,47.39,1014.66,2028.81,3367.00,3010.96,3416.00,600.41,589.15,18.54,0000 0000 0000 0000 000000
2016-07-25 07:01:15,-0.04,0.21,0.00,26.11,29.62,32.29,14.30,47.52,1014.66,2028.51,3366.98,3010.83,3415.99,599.85,588.48,18.59,0000 0000 0000 0000 000000
2016-07-25 07:06:16,0.01,0.21,0.00,26.14,29.65,32.27,14.25,47.42,1014.66,2028.26,3366.57,3010.27,3415.98,599.52,588.15,18.64,0000 0000 0000 0000 000000
2016-07-25 07:11:17,0.01,0.21,0.00,26.15,29.65,32.30,14.35,47.24,1014.66,2028.24,3366.16,3010.05,3415.93,600.52,589.23,18.69,0000 0000 0000 0000 000000
2016-07-25 07:16:19,0.00,0.21,0.00,26.17,29.67,32.30,14.35,47.48,1014.66,2028.14,3366.02,3010.02,3415.55,600.35,588.87,18.74,0000 0000 0000 0000 000000
2016-07-25 07:21:20,0.00,0.21,0.00,26.19,29.68,32.28,14.30,47.43,1014.66,2028.06,3366.00,3010.00,3415.07,599.84,588.39,18.79,0000 0000 0000 0000 000000
2016-07-25 07:26:21,0.00,0.21,0.00,26.24,29.70,32.32,14.25,47.26,1014.67,2028.03,3365.96,3010.00,3415.01,599.98,588.44,18.84,0000 0000 0000 0000 000000
2016-07-25 07:31:22,0.01,0.21,0.00,26.24,29.71,32.30,14.25,47.21,1014.67,2028.01,3365.79,3009.98,3415.00,600.04,588.50,18.89,0000 0000 0000 0000 000000
2016-07-25 07:36:24,0.01,0.21,0.00,26.26,29.72,32.33,14.28,47.42,1014.68,2028.00,3365.31,3009.83,3414.97,599.81,588.10,18.94,0000 0000 0000 0000 000000
2016-07-25 07:41:25,0.02,0.21,0.00,26.28,29.75,32.34,14.30,47.28,1014.67,2028.00,3365.01,3009.29,3414.74,600.05,588.34,18.99,0000 0000 0000 0000 000000
2016-07-25 07:46:26,0.01,0.21,0.00,26.31,29.77,32.33,14.29,47.43,1014.69,2028.00,3365.00,3009.08,3414.26,599.99,588.25,19.04,0000 0000 0000 0000 000000
2016-07-25 07:51:28,0.00,0.21,0.00,26.32,29.77,32.36,14.20,47.32,1014.69,2028.00,3364.98,3009.01,3414.01,599.56,587.90,19.09,0000 0000 0000 0000 000000
2016-07-25 07:56:29,0.00,0.21,0.00,26.32,29.80,32.36,14.22,47.36,1014.69,2027.99,3364.79,3009.00,3414.00,600.05,588.39,19.14,0000 0000 0000 0000 000000
2016-07-25 08:01:30,0.01,0.21,0.00,26.35,29.82,32.38,14.28,47.52,1014.70,2027.96,3364.20,3008.98,3413.97,599.89,588.18,19.19,0000 0000 0000 0000 000000
2016-07-25 08:06:31,0.01,0.22,0.00,26.37,29.84,32.43,14.19,47.42,1014.75,2027.89,3364.00,3008.76,3413.57,599.77,588.07,19.24,0000 0000 0000 0000 000000
2016-07-25 08:11:33,-0.03,0.21,0.00,26.39,29.86,32.43,14.29,47.33,1014.67,2027.52,3363.99,3008.24,3413.11,599.82,588.13,19.29,0000 0000 0000 0000 000000
2016-07-25 08:16:34,0.00,0.21,0.00,26.41,29.88,32.44,14.29,47.47,1014.68,2027.28,3363.70,3008.01,3413.01,599.91,588.11,19.34,0000 0000 0000 0000 000000
2016-07-25 08:21:35,-0.01,0.21,0.00,26.43,29.90,32.44,14.21,47.13,1014.67,2027.08,3363.07,3008.00,3412.99,599.53,587.63,19.39,0000 0000 0000 0000 000000
2016-07-25 08:26:36,0.00,0.21,0.00,26.46,29.92,32.46,14.26,47.21,1014.68,2027.02,3363.02,3007.99,3412.84,600.19,588.16,19.44,0000 0000 0000 0000 000000
2016-07-25 08:31:37,0.01,0.21,0.00,26.49,29.95,32.45,14.29,47.42,1014.78,2027.00,3363.00,3007.98,3412.44,599.78,587.82,19.49,0000 0000 0000 0000 000000
2016-07-25 08:36:39,0.01,0.21,0.00,26.54,29.97,32.47,14.35,47.36,1014.87,2027.00,3362.94,3007.67,3412.02,599.86,587.84,19.54,0000 0000 0000 0000 000000
2016-07-25 08:41:40,0.02,0.22,0.00,26.56,30.00,32.47,14.33,47.35,1015.01,2027.00,3362.61,3007.11,3411.99,599.87,587.87,19.59,0000 0000 0000 0000 000000
2016-07-25 08:46:41,0.01,0.22,0.00,26.59,30.02,32.50,14.17,47.04,1014.99,2026.99,3362.11,3007.01,3411.92,599.96,587.84,19.64,0000 0000 0000 0000 000000
2016-07-25 08:51:43,0.01,0.22,0.00,26.65,30.05,32.52,14.22,47.20,1014.97,2026.96,3362.00,3007.00,3411.28,600.11,587.79,19.69,0000 0000 0000 0000 000000
2016-07-25 08:56:44,-0.00,0.22,0.00,26.69,30.08,32.52,14.32,47.54,1015.04,2026.90,3361.93,3006.98,3411.01,600.12,587.95,19.74,0000 0000 0000 0000 000000
2016-07-25 09:01:45,-0.01,0.22,0.00,26.73,30.11,32.57,14.21,47.33,1015.14,2026.54,3361.30,3006.63,3410.99,599.99,587.67,19.79,0000 0000 0000 0000 000000
2016-07-25 09:06:46,-0.01,0.22,0.00,26.77,30.13,32.59,14.34,47.58,1015.15,2026.14,3361.02,3006.14,3410.70,600.27,587.85,19.84,0000 0000 0000 0000 000000
2016-07-25 09:11:48,0.00,0.22,0.00,26.80,30.16,32.60,14.22,47.14,1015.15,2026.05,3360.98,3006.00,3410.09,599.95,587.55,19.89,0000 0000 0000 0000 000000
2016-07-25 09:16:49,0.01,0.22,0.00,26.84,30.19,32.63,14.22,47.36,1015.15,2026.01,3360.68,3005.99,3410.00,599.84,587.40,19.94,0000 0000 0000 0000 000000
2016-07-25 09:21:50,0.02,0.22,0.00,26.89,30.22,32.66,14.13,47.17,1015.15,2026.00,3360.04,3005.63,3409.83,599.42,586.91,19.99,0000 0000 0000 0000 000000
2016-07-25 09:26:51,0.01,0.22,0.00,26.92,30.25,32.69,14.22,47.28,1015.15,2025.99,3359.99,3005.08,3409.18,599.96,587.39,20.04,0000 0000 0000 0000 000000
2016-07-25 09:31:52,-0.00,0.22,0.00,26.97,30.28,32.71,14.16,47.28,1015.15,2025.97,3359.90,3005.00,3409.01,599.69,586.97,20.09,0000 0000 0000 0000 000000
2016-07-25 09:36:54,0.00,0.22,0.00,27.01,30.31,32.74,14.22,47.25,1015.16,2025.86,3359.22,3004.98,3408.99,599.92,587.08,20.14,0000 0000 0000 0000 000000
2016-07-25 09:41:55,-0.02,0.22,0.00,27.06,30.34,32.77,14.16,47.38,1015.17,2025.59,3359.01,3004.88,3408.79,599.99,587.09,20.19,0000 0000 0000 0000 000000
2016-07-25 09:46:56,-0.00,0.22,0.00,27.10,30.37,32.81,14.26,47.51,1015.19,2025.11,3358.91,3004.25,3408.10,599.86,586.94,20.24,0000 0000 0000 0000 000000
2016-07-25 09:51:58,0.00,0.22,0.00,27.15,30.40,32.85,14.30,47.42,1015.18,2025.01,3358.25,3004.00,3407.99,599.84,586.73,20.29,0000 0000 0000 0000 000000
2016-07-25 09:56:59,0.01,0.22,0.00,27.21,30.43,32.87,14.22,47.43,1015.17,2025.00,3358.01,3003.97,3407.73,599.94,586.80,20.34,0000 0000 0000 0000 000000
2016-07-25 10:02:00,0.02,0.22,0.00,27.23,30.46,32.90,14.27,47.23,1015.23,2024.99,3357.94,3003.46,3407.05,600.08,586.98,20.39,0000 0000 0000 0000 000000
2016-07-25 10:07:01,0.01,0.22,0.00,27.26,30.50,32.93,14.25,47.33,1015.30,2024.97,3357.35,3003.04,3406.99,600.16,587.04,20.44,0000 0000 0000 0000 000000
2016-07-25 10:12:02,-0.00,0.22,0.00,27.30,30.53,32.96,14.17,47.16,1015.41,2024.91,3357.01,3003.00,3406.84,600.35,587.14,20.49,0000 0000 0000 0000 000000
2016-07-25 10:17:03,-0.04,0.22,0.00,27.32,30.56,32.99,14.30,47.32,1015.59,2024.49,3356.99,3002.94,3406.16,600.07,586.93,20.54,0000 0000 0000 0000 000000
2016-07-25 10:22:05,0.01,0.22,0.00,27.36,30.60,33.01,14.23,47.26,1015.62,2024.04,3356.46,3002.32,3406.00,600.32,586.90,20.59,0000 0000 0000 0000 000000
2016-07-25 10:27:06,0.01,0.22,0.00,27.38,30.63,33.04,14.16,47.10,1015.63,2024.00,3356.05,3002.02,3405.85,600.00,586.79,20.64,0000 0000 0000 0000 000000
2016-07-25 10:32:07,0.01,0.22,0.00,27.40,30.66,33.08,14.23,47.23,1015.62,2024.00,3356.00,3002.00,3405.25,600.18,586.92,20.69,0000 0000 0000 0000 000000
2016-07-25 10:37:09,0.01,0.22,0.00,27.44,30.69,33.12,14.23,47.18,1015.62,2024.00,3355.75,3001.87,3405.01,599.98,586.63,20.74,0000 0000 0000 0000 000000
2016-07-25 10:42:10,0.03,0.22,0.00,27.46,30.72,33.15,14.18,47.06,1015.61,2023.97,3355.06,3001.15,3404.85,599.93,586.58,20.80,0000 0000 0000 0000 000000
2016-07-25 10:47:11,0.01,0.22,0.00,27.50,30.76,33.19,14.13,47.10,1015.63,2023.94,3355.00,3001.00,3404.23,599.98,586.53,20.85,0000 0000 0000 0000 000000
2016-07-25 10:52:12,-0.03,0.22,0.00,27.56,30.79,33.23,14.13,47.05,1015.63,2023.65,3354.65,3000.96,3404.00,599.96,586.37,20.90,0000 0000 0000 0000 000000
2016-07-25 10:57:13,-0.00,0.22,0.00,27.61,30.82,33.28,14.24,47.07,1015.64,2023.12,3354.08,3000.44,3403.82,600.12,586.44,20.95,0000 0000 0000 0000 000000
2016-07-25 11:02:15,0.00,0.22,0.00,27.68,30.86,33.33,14.16,47.25,1015.64,2023.02,3353.99,3000.04,3403.16,599.96,586.12,21.00,0000 0000 0000 0000 000000
2016-07-25 11:07:16,0.00,0.22,0.00,27.75,30.89,33.39,14.25,47.43,1015.64,2023.00,3353.86,3000.00,3403.00,600.19,586.19,21.05,0000 0000 0000 0000 000000
2016-07-25 11:12:17,0.01,0.22,0.00,27.82,30.93,33.45,14.17,47.33,1015.64,2023.00,3353.38,2999.94,3402.92,600.16,586.08,21.10,0000 0000 0000 0000 000000
2016-07-25 11:17:19,0.03,0.22,0.00,27.88,30.97,33.48,14.15,47.23,1015.64,2022.94,3353.00,2999.21,3402.16,599.75,585.56,21.15,0000 0000 0000 0000 000000
2016-07-25 11:22:20,-0.02,0.22,0.00,27.94,31.01,33.52,14.20,47.15,1015.64,2022.79,3352.92,2999.01,3402.00,599.83,585.49,21.20,0000 0000 0000 0000 000000
2016-07-25 11:27:22,-0.03,0.22,0.00,27.97,31.05,33.56,14.17,47.14,1015.64,2022.25,3352.19,2998.92,3401.68,600.05,585.83,21.25,0000 0000 0000 0000 000000
2016-07-25 11:32:23,0.01,0.22,0.00,27.99,31.08,33.57,14.15,47.13,1015.64,2022.02,3351.99,2998.25,3401.04,600.01,585.56,21.30,0000 0000 0000 0000 000000
2016-07-25 11:37:24,0.01,0.22,0.00,27.99,31.11,33.60,14.24,47.18,1015.64,2022.00,3351.71,2998.00,3400.98,600.30,585.89,21.35,0000 0000 0000 0000 000000
2016-07-25 11:42:26,0.02,0.22,0.00,27.96,31.15,33.62,14.18,47.04,1015.64,2021.99,3351.06,2997.95,3400.42,600.01,585.52,21.40,0000 0000 0000 0000 000000
2016-07-25 11:47:27,0.01,0.22,0.00,27.93,31.18,33.66,14.22,47.04,1015.64,2021.90,3350.97,2997.40,3400.00,600.00,585.68,21.45,0000 0000 0000 0000 000000
2016-07-25 11:52:28,0.00,0.22,0.00,27.89,31.21,33.69,14.19,47.01,1015.64,2021.83,3350.74,2997.10,3399.99,600.24,586.10,21.50,0000 0000 0000 0000 000000
2016-07-25 11:57:29,-0.02,0.22,0.00,27.89,31.23,33.71,14.15,46.98,1015.64,2021.48,3350.13,2997.02,3399.90,599.77,585.66,21.55,0000 0000 0000 0000 000000
2016-07-25 12:02:31,-0.02,0.22,0.00,27.89,31.25,33.72,14.18,46.84,1015.64,2021.13,3350.00,2997.00,3399.27,600.22,585.95,21.60,0000 0000 0000 0000 000000
2016-07-25 12:07:32,0.00,0.22,0.00,27.90,31.27,33.73,14.16,47.09,1015.64,2021.01,3349.93,2996.90,3399.00,600.04,585.78,21.65,0000 0000 0000 0000 000000
2016-07-25 12:12:33,0.02,0.22,0.00,27.89,31.30,33.75,14.20,47.02,1015.64,2021.00,3349.41,2996.28,3398.99,599.66,585.32,21.70,0000 0000 0000 0000 000000
2016-07-25 12:17:34,0.01,0.22,0.00,27.88,31.31,33.76,14.18,46.87,1015.64,2021.00,3349.09,2996.08,3398.85,599.67,585.49,21.75,0000 0000 0000 0000 000000
2016-07-25 12:22:35,0.00,0.22,0.00,27.85,31.32,33.77,14.15,47.10,1015.64,2021.00,3349.00,2996.00,3398.36,599.99,585.82,21.80,0000 0000 0000 0000 000000
2016-07-25 12:27:36,0.00,0.22,0.00,27.84,31.34,33.80,14.18,47.08,1015.64,2020.99,3348.99,2996.00,3398.07,599.72,585.53,21.85,0000 0000 0000 0000 000000
2016-07-25 12:32:37,-0.00,0.22,0.00,27.81,31.35,33.80,14.12,47.02,1015.64,2020.93,3348.95,2995.98,3398.01,599.84,585.81,21.90,0000 0000 0000 0000 000000
2016-07-25 12:37:39,-0.02,0.22,0.00,27.82,31.37,33.82,14.25,46.83,1015.64,2020.70,3348.64,2995.93,3397.99,600.21,586.16,21.95,0000 0000 0000 0000 000000
2016-07-25 12:42:40,0.00,0.22,0.00,27.79,31.37,33.83,14.19,46.98,1015.64,2020.43,3348.11,2995.50,3397.84,600.02,586.02,22.00,0000 0000 0000 0000 000000
2016-07-25 12:47:41,0.00,0.22,0.00,27.80,31.37,33.84,14.10,47.00,1015.64,2020.18,3348.00,2995.03,3397.08,599.92,586.00,22.05,0000 0000 0000 0000 000000
2016-07-25 12:52:43,0.00,0.22,0.00,27.80,31.40,33.86,14.18,46.89,1015.64,2020.13,3347.97,2995.00,3397.00,599.59,585.57,22.10,0000 0000 0000 0000 000000
2016-07-25 12:57:44,-0.01,0.22,0.00,27.78,31.40,33.89,14.25,47.06,1015.64,2020.07,3347.91,2994.98,3397.00,599.98,585.99,22.15,0000 0000 0000 0000 000000